Date String (YYYY-MM-DD hh:mm:ss) UTC,Instrument flags,absolute air pressure of the measurement (hPa),sample flow rate (lpm),inlet stack bypass flow (lpm),air temperature of the measurement (°C),ambient temperature measured by the external sensor (°C),aerosol sample conditioner tube jacket temperature (°C),OPC LED temperature (°C),internal box temperature (°C),relative humidity of the measurement (%),span deviation,mass concentration of particles derived from Lorenz-Mie calculation of OPC scattering (μg/m³),mass concentration of particles derived from Lorenz-Mie calculation of OPC scattering (μg/m³),mass concentration of particles derived from Lorenz-Mie calculation of OPC scattering (μg/m³)
DateTimeUTC,F1_M11,P_M11,Q1_M11,Q2_M11,T1_M11,T2_M11,T3_M11,T4_M11,T5_M11,U1_M11,ZSPAN_M11,X0_M11,X2_M11,X1_M11
2024-05-01 13:00:00,SystemResetWarning,0824.3,4.99,000.00,024.4,023.7,000.0,032.9,026.3,014.7,0000.0,0007.85,0003.50,0002.26
2024-05-01 13:01:00,SystemResetWarning,0824.3,5.00,000.00,024.4,023.7,000.0,032.9,026.3,014.7,0000.0,0007.80,0003.48,0002.26
2024-05-01 13:02:00,SystemResetWarning,0824.2,5.00,000.00,024.4,023.7,000.0,032.9,026.3,014.5,0000.0,0007.78,0003.42,0002.26
2024-05-01 13:03:00,SystemResetWarning,0824.1,5.00,000.00,024.4,023.8,000.0,033.0,026.3,014.6,0000.0,0007.82,0003.40,0002.26
2024-05-01 13:04:00,SystemResetWarning,0824.2,5.00,000.00,024.4,023.8,000.0,033.0,026.3,014.7,0000.0,0007.63,0003.36,0002.26
2024-05-01 13:05:00,SystemResetWarning,0824.1,5.01,000.00,024.4,023.8,000.0,033.0,026.3,014.7,0000.0,0007.72,0003.37,0002.26
2024-05-01 13:06:00,SystemResetWarning,0824.0,5.01,000.00,024.4,023.8,000.0,033.0,026.3,014.6,0000.0,0007.85,0003.40,0002.28
2024-05-01 13:07:00,SystemResetWarning,0824.0,5.00,000.00,024.4,023.8,000.0,033.0,026.4,014.6,0000.0,0007.88,0003.43,0002.30
2024-05-01 13:08:00,SystemResetWarning,0824.1,4.99,000.00,024.5,023.8,000.0,033.0,026.4,014.6,0000.0,0007.94,0003.47,0002.30
2024-05-01 13:09:00,SystemResetWarning,0824.2,5.00,000.00,024.5,023.8,000.0,033.0,026.3,014.5,0000.0,0009.47,0003.49,0002.31
2024-05-01 13:10:00,SystemResetWarning,0824.2,5.01,000.00,024.5,023.8,000.0,033.0,026.4,014.6,0000.0,0009.99,0003.51,0002.33
2024-05-01 13:11:00,SystemResetWarning,0824.2,5.01,000.00,024.5,023.8,000.0,033.0,026.4,014.9,0000.0,0011.25,0003.52,0002.32
2024-05-01 13:12:00,SystemResetWarning,0824.2,5.00,000.00,024.5,023.8,000.0,033.0,026.4,014.9,0000.0,0011.40,0003.54,0002.30
2024-05-01 13:13:00,SystemResetWarning,0824.2,5.00,000.00,024.5,023.8,000.0,033.0,026.3,015.1,0000.0,0011.21,0003.58,0002.31
2024-05-01 13:14:00,SystemResetWarning,0824.2,5.00,000.00,024.5,023.8,000.0,033.0,026.4,015.1,0000.0,0010.92,0003.59,0002.33
2024-05-01 13:15:00,SystemResetWarning,0824.2,5.00,000.00,024.5,023.8,000.0,033.0,026.4,015.1,0000.0,0011.10,0003.65,0002.35
2024-05-01 13:16:00,SystemResetWarning,0824.2,5.00,000.00,024.5,023.9,000.0,033.0,026.4,015.1,0000.0,0011.27,0003.67,0002.35
2024-05-01 13:17:00,SystemResetWarning,0824.2,5.01,000.00,024.5,023.9,000.0,033.0,026.4,015.2,0000.0,0011.52,0003.70,0002.34
2024-05-01 13:18:00,SystemResetWarning,0824.1,5.01,000.00,024.5,023.9,000.0,033.0,026.4,015.2,0000.0,0011.69,0003.68,0002.34
2024-05-01 13:19:00,SystemResetWarning,0824.2,4.99,000.00,024.5,023.9,000.0,033.0,026.4,015.3,0000.0,0011.69,0003.65,0002.34
2024-05-01 13:20:00,SystemResetWarning,0824.1,5.00,000.00,024.5,023.9,000.0,033.0,026.4,015.2,0000.0,0010.28,0003.63,0002.32
2024-05-01 13:21:00,SystemResetWarning,0824.1,5.00,000.00,024.5,023.9,000.0,033.0,026.4,015.4,0000.0,0009.57,0003.62,0002.31
2024-05-01 13:22:00,SystemResetWarning,0824.2,5.01,000.00,024.5,023.9,000.0,033.0,026.4,015.7,0000.0,0008.96,0003.63,0002.31
2024-05-01 13:23:00,SystemResetWarning,0824.2,5.00,000.00,024.5,023.9,000.0,033.0,026.4,015.5,0000.0,0009.19,0003.63,0002.31
2024-05-01 13:24:00,SystemResetWarning,0824.2,4.99,000.00,024.5,023.9,000.0,033.0,026.4,015.2,0000.0,0009.31,0003.65,0002.31
2024-05-01 13:25:00,SystemResetWarning,0824.2,4.99,000.00,024.5,023.9,000.0,033.0,026.4,015.3,0000.0,0009.26,0003.62,0002.29
2024-05-01 13:26:00,SystemResetWarning,0824.2,5.00,000.00,024.5,023.9,000.0,033.0,026.4,015.5,0000.0,0009.27,0003.61,0002.28
2024-05-01 13:27:00,SystemResetWarning,0824.1,5.00,000.00,024.5,023.9,000.0,033.0,026.4,015.5,0000.0,0009.31,0003.61,0002.26
2024-05-01 13:28:00,SystemResetWarning,0824.0,5.00,000.00,024.6,023.9,000.0,033.1,026.4,015.5,0000.0,0009.17,0003.58,0002.26
2024-05-01 13:29:00,SystemResetWarning,0824.0,5.00,000.00,024.6,023.9,000.0,033.1,026.5,015.1,0000.0,0009.13,0003.59,0002.25
2024-05-01 13:30:00,SystemResetWarning,0824.0,5.01,000.00,024.6,023.9,000.0,033.1,026.4,015.3,0000.0,0009.21,0003.63,0002.24
2024-05-01 13:31:00,SystemResetWarning,0823.8,5.00,000.00,024.6,023.9,000.0,033.1,026.4,015.3,0000.0,0009.83,0003.65,0002.25
2024-05-01 13:32:00,SystemResetWarning,0823.8,5.00,000.00,024.6,023.9,000.0,033.1,026.5,015.2,0000.0,0010.63,0003.69,0002.23
2024-05-01 13:33:00,SystemResetWarning,0823.8,5.00,000.00,024.6,023.9,000.0,033.1,026.5,015.0,0000.0,0010.66,0003.66,0002.23
2024-05-01 13:34:00,SystemResetWarning,0823.8,5.00,000.00,024.6,023.9,000.0,033.1,026.5,015.2,0000.0,0011.10,0003.64,0002.23
2024-05-01 13:35:00,SystemResetWarning,0823.8,5.00,000.00,024.6,023.9,000.0,033.1,026.5,015.4,0000.0,0011.15,0003.60,0002.21
2024-05-01 13:36:00,SystemResetWarning,0823.8,5.00,000.00,024.6,023.9,000.0,033.1,026.5,015.4,0000.0,0011.39,0003.62,0002.21
2024-05-01 13:37:00,SystemResetWarning,0823.8,5.00,000.00,024.6,023.9,000.0,033.1,026.5,015.7,0000.0,0011.65,0003.64,0002.20
2024-05-01 13:38:00,SystemResetWarning,0823.8,5.00,000.00,024.6,023.9,000.0,033.1,026.5,015.8,0000.0,0012.26,0003.68,0002.20
2024-05-01 13:39:00,SystemResetWarning,0823.8,4.99,000.00,024.6,023.9,000.0,033.1,026.5,016.1,0000.0,0013.48,0003.70,0002.21
2024-05-01 13:40:00,SystemResetWarning,0823.8,5.00,000.00,024.6,023.9,000.0,033.1,026.5,016.3,0000.0,0014.03,0003.74,0002.22
2024-05-01 13:41:00,SystemResetWarning,0823.8,5.00,000.00,024.6,023.9,000.0,033.1,026.5,016.5,0000.0,0015.18,0003.80,0002.23
2024-05-01 13:42:00,SystemResetWarning,0823.8,5.00,000.00,024.6,023.9,000.0,033.1,026.5,016.4,0000.0,0014.92,0003.83,0002.23
2024-05-01 13:43:00,SystemResetWarning,0823.8,5.00,000.00,024.6,023.9,000.0,033.1,026.5,016.8,0000.0,0014.95,0003.86,0002.26
2024-05-01 13:44:00,SystemResetWarning,0823.8,5.00,000.00,024.6,023.9,000.0,033.1,026.5,016.6,0000.0,0014.68,0003.89,0002.27
2024-05-01 13:45:00,SystemResetWarning,0823.8,5.00,000.00,024.6,023.9,000.0,033.1,026.5,016.2,0000.0,0014.25,0003.92,0002.29
2024-05-01 13:46:00,SystemResetWarning,0823.8,5.00,000.00,024.6,023.9,000.0,033.1,026.5,015.6,0000.0,0014.47,0004.00,0002.30
2024-05-01 13:47:00,SystemResetWarning,0823.8,5.01,000.00,024.6,024.0,000.0,033.1,026.5,016.0,0000.0,0015.05,0004.03,0002.33
2024-05-01 13:48:00,SystemResetWarning,0823.8,5.00,000.00,024.6,024.0,000.0,033.1,026.5,015.9,0000.0,0015.41,0004.08,0002.33
2024-05-01 13:49:00,SystemResetWarning,0823.8,5.00,000.00,024.6,024.0,000.0,033.1,026.5,015.6,0000.0,0015.75,0004.03,0002.33
2024-05-01 13:50:00,SystemResetWarning,0823.8,5.01,000.00,024.6,024.0,000.0,033.1,026.5,015.8,0000.0,0014.98,0004.06,0002.32
2024-05-01 13:51:00,SystemResetWarning,0823.8,5.00,000.00,024.6,024.0,000.0,033.1,026.5,015.7,0000.0,0014.87,0004.04,0002.32
2024-05-01 13:52:00,SystemResetWarning,0823.8,5.00,000.00,024.6,024.0,000.0,033.1,026.5,015.5,0000.0,0013.90,0003.99,0002.29
2024-05-01 13:53:00,SystemResetWarning,0823.8,5.00,000.00,024.6,024.0,000.0,033.1,026.5,015.7,0000.0,0013.74,0003.95,0002.30
2024-05-01 13:54:00,SystemResetWarning,0823.8,5.00,000.00,024.6,024.0,000.0,033.1,026.6,014.9,0000.0,0013.10,0003.91,0002.28
2024-05-01 13:55:00,SystemResetWarning,0823.8,4.99,000.00,024.6,024.0,000.0,033.2,026.5,014.8,0000.0,0013.23,0003.92,0002.28
2024-05-01 13:56:00,SystemResetWarning,0823.8,5.00,000.00,024.7,024.0,000.0,033.2,026.5,014.8,0000.0,0013.04,0003.95,0002.28
2024-05-01 13:57:00,SystemResetWarning,0823.8,5.01,000.00,024.7,024.0,000.0,033.2,026.5,015.0,0000.0,0012.63,0003.95,0002.26
2024-05-01 13:58:00,SystemResetWarning,0823.9,5.01,000.00,024.7,024.0,000.0,033.2,026.6,015.1,0000.0,0012.58,0003.97,0002.24
2024-05-01 13:59:00,SystemResetWarning,0823.9,5.00,000.00,024.7,024.0,000.0,033.2,026.6,015.1,0000.0,0012.79,0003.90,0002.24
